Date,TemperatureHighF,TemperatureAvgF,TemperatureLowF,DewpointHighF,DewpointAvgF,DewpointLowF,HumidityHigh,HumidityAvg,HumidityLow,PressureMaxIn,PressureMinIn,WindSpeedMaxMPH,WindSpeedAvgMPH,GustSpeedMaxMPH,PrecipitationSumIn
2013-3-1,29,26,24,24,20,18,82,80,77,30.07,29.94,12,6,14,0.00
2013-3-2,26,23,19,20,18,15,85,79,72,30.06,30.01,11,5,11,0.00
2013-3-3,30,22,15,19,14,12,87,72,54,30.02,29.96,13,4,13,0.00
2013-3-4,33,23,13,18,14,10,89,70,43,30.10,30.01,6,2,6,0.00
2013-3-5,38,28,18,22,18,12,88,68,47,30.08,29.80,18,8,18,0.00
2013-3-6,39,32,26,28,25,21,84,77,62,30.17,29.84,13,4,14,0.00
2013-3-7,35,31,23,29,24,17,90,74,55,30.36,30.16,13,4,13,0.00
2013-3-8,47,31,18,26,21,16,92,69,40,30.46,30.35,9,2,9,0.00
2013-3-9,45,34,24,30,26,22,93,73,50,30.36,29.89,15,6,17,0.00
2013-3-10,59,50,38,42,35,29,71,56,44,30.18,29.95,14,7,16,0.00
2013-3-11,56,49,36,48,42,33,96,80,45,29.98,29.64,17,8,20,0.30
2013-3-12,37,34,30,34,28,22,91,80,63,30.06,29.84,16,5,16,0.00
2013-3-13,34,28,23,29,20,12,95,72,49,30.34,30.00,20,7,20,0.04
2013-3-14,40,30,21,21,16,12,78,57,38,30.40,30.23,14,4,15,0.01
2013-3-15,38,34,31,33,27,13,98,77,46,30.23,29.99,11,4,15,0.05
2013-3-16,34,29,26,33,26,22,99,88,74,30.08,29.87,12,2,12,0.00
2013-3-17,32,25,18,25,15,11,87,66,48,30.31,30.08,14,7,15,0.12
2013-3-18,34,29,20,34,24,12,98,85,70,30.23,29.60,19,9,24,0.05
2013-3-19,34,26,22,31,19,14,89,75,67,29.98,29.66,21,4,24,0.00
2013-3-20,28,23,16,17,13,9,76,64,52,29.99,29.93,16,7,20,0.00
2013-3-21,32,24,15,23,18,10,88,77,65,29.99,29.90,13,6,15,0.02
2013-3-22,39,29,25,22,18,15,73,64,44,30.11,29.92,17,6,17,0.00
2013-3-23,35,29,22,23,21,18,89,72,58,30.10,30.00,8,2,9,0.00
2013-3-24,38,29,21,26,21,18,90,73,49,30.04,29.66,23,7,23,0.00
2013-3-25,38,34,30,26,24,22,72,67,56,29.92,29.58,17,8,21,0.00
2013-3-26,43,36,31,31,27,24,81,70,52,30.11,29.92,11,5,12,0.00
2013-3-27,48,38,26,29,24,21,82,61,37,30.20,30.11,14,6,17,0.00
2013-3-28,51,40,29,26,22,19,79,52,32,30.26,30.19,13,5,14,0.00
2013-3-29,51,39,27,22,19,16,70,47,27,30.27,30.19,9,3,10,0.00
2013-3-30,56,42,26,26,20,14,79,46,19,30.21,29.91,12,3,12,0.00
2013-3-31,57,46,40,40,32,26,80,58,36,29.91,29.63,15,5,17,0.00